Location: Buckeye Campground
(38.2391°N, 119.3449°W)
Time: 15:09:15
(UTC+00:00)

Daily predictions for brighter satellites

Satellite Brightness Start Highest point End
(mag) Time Altitude Azimuth Time Altitude Azimuth Time Altitude Azimuth
Cosmos 1263 4.4 12:06:01 10° N 12:09:10 74° E 12:12:06 10° S
SL-8 R/B 3.9 12:05:23 10° WSW 12:10:10 67° NNW 12:14:57 10° NE
Cosmos 1464 Rocket 4.2 12:05:28 10° S 12:11:50 86° E 12:18:14 10° N
